Location: Napa Junction
(38.1874°N, 122.2508°W)
Time: 15:02:22
(UTC+00:00)

CENTAUR R/B - Pass Details

Date: 08 September 2024
Orbit: 661 x 1523 km, 63.4° (Epoch: 07 October)

Event Time Altitude Azimuth Distance (km) Brightness Sun altitude
Exits shadow 12:51:51 13° 237° (WSW) 2,160 3.7 -11.1°
Maximum altitude 12:56:32 50° 310° (NW) 1,150 2.7 -10.2°
Drops below altitude 10° 13:03:02 10° 25° (NNE) 2,904 5.6 -9.0°
Sets 13:06:07 0° 31° (NNE) 4,010 6.4 -8.4°
